Regional Weather Roundup
Issued by NWS

Home | Current Version | Previous Version | Graphics & Text | Print | Product List | Glossary On
Versions: 1 2 3 4 5 6 7 8 9 10 11 12 13 14 15 16 17 18 19 20 21 22 23 24 25 26 27 28 29 30 31 32 33 34 35 36 37 38 39 40 41 42 43 44 45 46 47 48 49 50
000
ASUS43 KDMX 230801
RWRIA

WEATHER ROUNDUP FOR IOWA
NATIONAL WEATHER SERVICE DES MOINES IA
200 AM CST MON JAN 23 2017

NOTE: "FAIR" INDICATES FEW OR NO CLOUDS BELOW 12,000 FEET WITH NO
SIGNIFICANT WEATHER AND/OR OBSTRUCTIONS TO VISIBILITY.

* - THESE STATIONS ARE NOT NWS STATIONS...THUS NOT UNDER NWS
QUALITY CONTROL.  THEY ALSO DO NOT REPORT WEATHER SUCH
AS PRECIPITATION OR FOG.

IAZ001>003-012>014-020>022-031>034-043>046-230900-
   NORTHWEST IOWA

CITY           SKY/WX    TMP DP  RH WIND       PRES   REMARKS
CARROLL *      CLOUDY    32  32 100 NW10      29.87R WCI  24
CHEROKEE *     CLOUDY    32  29  91 N9        29.87S WCI  24
DENISON *      CLOUDY    32  28  86 NW10      29.87R WCI  24
LE MARS *      CLOUDY    32  28  86 NW12      29.89R WCI  23
ORANGE CITY *  CLOUDY    30  28  93 NW9       29.87R WCI  22
SHELDON *      CLOUDY    32  32 100 NW13      29.84R WCI  22
SIOUX CITY     CLOUDY    33  29  85 NW8       29.89R WCI  26
SPENCER          N/A    N/A N/A N/A MISG      29.85R
STORM LAKE *   CLOUDY    30  28  93 NW7G16    29.86R WCI  23
$$

IAZ055>058-069>071-079>083-090>094-230900-
   SOUTHWEST IOWA

CITY           SKY/WX    TMP DP  RH WIND       PRES   REMARKS
ATLANTIC *     CLOUDY    32  30  93 NW8G14    29.90R WCI  25
AUDUBON *      CLOUDY    30  28  93 NW9       29.89R WCI  22
CLARINDA *     CLOUDY    32  32 100 N10       29.92S WCI  24
COUNCIL BLFS * CLOUDY    30  30 100 NW10      29.89F WCI  21
CRESTON *      CLOUDY    32  30  93 NW12      29.89R WCI  23
HARLAN  *      CLOUDY    32  32 100 NW13      29.93R WCI  22
LAMONI         CLOUDY    33  32  96 NW5       29.87R FOG     WCI  29
RED OAK *      CLOUDY    32  30  93 NW12      29.91S WCI  23
SHENANDOAH *   CLOUDY    32  32 100 NW6       29.92S FOG     WCI  26
$$

IAZ047>049-059>061-072>074-084-230900-
   CENTRAL IOWA

CITY           SKY/WX    TMP DP  RH WIND       PRES   REMARKS
AMES           CLOUDY    32  32 100 NW7       29.86S FOG     WCI  26
ANKENY *       CLOUDY    32  32 100 W9        29.87S FOG     WCI  24
BOONE *        CLOUDY    32  32 100 NW8       29.85R FOG     WCI  25
CHARITON *     CLOUDY    34  34 100 NW13      29.85S FOG     WCI  25
DES MOINES     DRIZZLE   33  31  92 NW12      29.87S FOG     WCI  24
GRINNELL*      CLOUDY    35  35  99 W9        29.84S FOG     WCI  28
KNOXVILLE *    CLOUDY    34  34 100 W13       29.84S FOG     WCI  25
MARSHALLTOWN   CLOUDY    34  34 100 NW8       29.83S FOG     WCI  27
NEWTON *       CLOUDY    36  36 100 NW8       29.84S FOG     WCI  29
PELLA *        CLOUDY    36  35  98 NW8       29.86S FOG     WCI  29
PERRY *        CLOUDY    32  31  96 NW10      29.87S WCI  24
$$

IAZ004>006-015-016-023>025-035-036-230900-
   NORTH CENTRAL IOWA

CITY           SKY/WX    TMP DP  RH WIND       PRES   REMARKS
ALGONA *       CLOUDY    32  32 100 NW8       29.84S WCI  25
CLARION *      CLOUDY    32  32 100 NW7       29.84S FOG     WCI  26
ESTHERVILLE    CLOUDY    31  30  96 NW10      29.83S WCI  22
FORT DODGE *   CLOUDY    30  28  93 N5        29.86S WCI  25
MASON CITY     CLOUDY    32  30  92 NW10      29.84S FOG     WCI  24
FOREST CITY *  CLOUDY    32  32 100 NW8       29.83S FOG     WCI  25
WEBSTER CITY * CLOUDY    32 N/A N/A NW9       29.84R FOG     WCI  24
IOWA FALLS *   CLOUDY    34  33  96 W7        29.84S FOG     WCI  28
$$

IAZ007>011-017>019-026>030-037>042-050>054-066-230900-
   NORTHEAST IOWA

CITY           SKY/WX    TMP DP  RH WIND       PRES   REMARKS
CEDAR RAPIDS   CLOUDY    34  33  96 W8        29.80R WCI  27
CHARLES CITY * CLOUDY    34  34 100 NW10      29.82S FOG     WCI  26
CLINTON *      CLOUDY    35  35 100 CALM      29.78S FOG
DECORAH *      CLOUDY    34  34 100 W5        29.79R WCI  30
DUBUQUE        CLOUDY    35  34  96 NW10      29.77R WCI  27
MONTICELLO *   CLOUDY    36  34  93 NW8       29.79R WCI  29
OELWEIN *      CLOUDY    34  34 100 NW10      29.81R FOG     WCI  26
WATERLOO       CLOUDY    34  33  96 NW7       29.83R WCI  28
$$

IAZ064-065-067-068-078-230900-
   EAST CENTRAL IOWA

CITY           SKY/WX    TMP DP  RH WIND       PRES   REMARKS
DAVENPORT      CLOUDY    35  34  96 NW5       29.78R FOG     WCI  31
IOWA CITY      CLOUDY    38  34  85 NW10      29.82R WCI  31
MUSCATINE *    CLOUDY    37  34  87 NW12      29.81R WCI  30
QUAD CITIES    CLOUDY    38  34  85 NW5       29.78R WCI  34
$$

IAZ062-063-075>077-085>089-095>099-230900-
   SOUTHEAST IOWA

CITY           SKY/WX    TMP DP  RH WIND       PRES   REMARKS
BURLINGTON     CLOUDY    37  35  92 N9        29.79R WCI  30
FAIRFIELD *    CLOUDY    37  36  93 NW13      29.81F FOG     WCI  29
FORT MADISON * CLOUDY    37  36  93 NW8       29.81R WCI  31
KEOKUK *       CLOUDY    37 N/A N/A NW8       29.80R WCI  31
OSKALOOSA *    CLOUDY    35  35  98 NW6       29.84S FOG     WCI  30
CENTERVILLE *  CLOUDY    36  36 100 NW8       29.85S WCI  29
OTTUMWA        CLOUDY    37  35  92 NW10      29.83R FOG     WCI  30
WASHINGTON *   CLOUDY    37  36  93 NW15      29.82S WCI  28
$$

ABBREVIATIONS USED IN REMARKS
   TC - TEMPERATURES IN CELSIUS
  WCI - WIND CHILL INDEX
   HX - HEAT INDEX
  VSB - VISIBILITY
$$




USA.gov is the U.S. government's official web portal to all federal, state and local government web resources and services.